This is the latest recevied weather packets stored in our database for station/object HP1CDW-10. If no packets are shown the sender has not sent any weather packets the latest 10 day(s).
| Time | Temp. | Humidity | Pressure | Rain* | Wind** | Luminosity | Snow |
|---|---|---|---|---|---|---|---|
| 1777724285 | 33.89° C | 51% | 1002.8 hPa | - | - | - | - |
| 1777721866 | 34.44° C | 50% | 1001.8 hPa | - | - | - | - |
| 1777721261 | 34.44° C | 50% | 1001.9 hPa | - | - | - | - |
| 1777720656 | 34.44° C | 50% | 1001.9 hPa | - | - | - | - |
| 1777720051 | 34.44° C | 50% | 1001.9 hPa | - | - | - | - |
| 1777719447 | 34.44° C | 50% | 1001.8 hPa | - | - | - | - |
| 1777718842 | 34.44° C | 50% | 1001.6 hPa | - | - | - | - |
| 1777718237 | 34.44° C | 49% | 1001.5 hPa | - | - | - | - |
| 1777717632 | 34.44° C | 50% | 1001.7 hPa | - | - | - | - |
| 1777717027 | 34.44° C | 50% | 1001.6 hPa | - | - | - | - |
| 1777716423 | 34.44° C | 50% | 1001.4 hPa | - | - | - | - |
| 1777715818 | 34.44° C | 49% | 1001.1 hPa | - | - | - | - |
| 1777715213 | 34.44° C | 49% | 1000.8 hPa | - | - | - | - |
| 1777714608 | 34.44° C | 49% | 1000.5 hPa | - | - | - | - |
| 1777714004 | 34.44° C | 50% | 1000.8 hPa | - | - | - | - |
| 1777713399 | 34.44° C | 49% | 1000.8 hPa | - | - | - | - |
| 1777712189 | 34.44° C | 50% | 1000.4 hPa | - | - | - | - |
| 1777711584 | 34.44° C | 50% | 1000.5 hPa | - | - | - | - |
| 1777710980 | 34.44° C | 50% | 1000.5 hPa | - | - | - | - |
| 1777710375 | 34.44° C | 50% | 1000.5 hPa | - | - | - | - |
| 1777709770 | 33.33° C | 53% | 1000.6 hPa | - | - | - | - |
| 1777708561 | 33.89° C | 51% | 1001 hPa | - | - | - | - |
| 1777707956 | 33.33° C | 53% | 1001.3 hPa | - | - | - | - |
| 1777707351 | 33.33° C | 53% | 1001.5 hPa | - | - | - | - |
| 1777706746 | 33.33° C | 53% | 1001.6 hPa | - | - | - | - |
* Rain since midnight (hover to see other rain measurements)
** Current wind speed in m/s (hover to see current wind gust speed)